#timestamp,LO_Frequency,Hit,StdDev 
1458277215.7,286046993.9,N
1458277235.5,286046995.1,N
1458277255.4,286046996.2,N
1458277275.2,286046991.2,Y
1458277295.0,286046995.3,P
1458277295.9,286046995.3,P
1458277315.8,286046996.7,P
1458277335.6,286046997.9,N
1458277355.4,286046995.7,Y
1458277375.3,286047000.5,P
1458277395.1,286047002.6,N
1458277415.8,286047005.6,N
1458277435.7,286047004.8,N
1458277455.5,286047004.5,N
1458277475.3,286047007.1,N
1458277495.2,286047007.3,N
1458277515.9,286047010.4,Y
1458277535.7,286047005.6,P
1458277555.6,286047006.7,P
1458277575.4,286047007.1,P
1458277595.2,286047003.0,N
1458277615.1,286047003.9,N
1458277616.0,286047003.9,N
1458277635.8,286047004.5,N
1458277655.6,286047006.2,Y
1458277675.5,286047002.3,P
1458277695.3,286047003.0,N
1458277715.1,286047005.2,P
1458277735.9,286047004.6,Y
1458277755.7,286047005.5,P
1458277775.5,286047006.6,P
1458277795.4,286047007.9,P
1458277815.2,286047006.3,Y
1458277835.0,286046998.8,P
1458277835.9,286046998.8,N
1458277855.8,286046995.9,N
1458277875.6,286046996.8,N
1458277895.4,286047004.0,N
1458277915.2,286047005.9,N
1458277935.1,286047002.3,N
1458277936.0,286047002.3,N
1458277955.8,286047001.6,N
1458277975.6,286047002.2,N
1458277995.5,286047001.9,N
1458278015.3,286047001.5,N
1458278035.1,286047001.7,N
1458278055.9,286047002.6,N
1458278075.7,286047002.6,N
1458278095.5,286047000.5,N
1458278115.4,286047000.7,N
1458278135.2,286047000.4,N
1458278155.0,286047000.6,N
1458278155.9,286047000.6,N
1458278175.8,286046998.2,N
1458278195.6,286047000.8,N
1458278215.4,286046997.4,N
1458278235.2,286046993.3,N
1458278255.1,286046995.4,N
1458278256.0,286046995.4,N
1458278275.8,286046996.2,N
1458278295.6,286046996.2,N
1458278315.5,286046996.4,N
1458278335.3,286046990.2,Y
1458278355.1,286046994.4,P
1458278375.9,286046996.8,N
1458278395.7,286046993.6,N
1458278415.6,286046991.8,Y
1458278435.4,286046997.2,P
1458278455.2,286046997.3,P
1458278475.0,286046994.3,P
1458278476.0,286046994.3,Y
1458278495.8,286046996.7,P
1458278515.6,286046991.7,P
1458278535.4,286046991.1,P
1458278555.3,286046991.0,Y
1458278575.1,286046996.4,P
1458278595.9,286046995.8,P
1458278615.7,286046992.6,P
1458278635.5,286046992.1,Y
1458278655.4,286046998.7,P
1458278675.2,286046999.2,N
1458278695.0,286046997.9,N
1458278695.9,286046997.9,N
1458278715.8,286046994.7,Y
1458278735.6,286046998.9,P
1458278755.4,286046998.2,N
1458278775.3,286046996.8,P
1458278795.1,286046998.8,N
1458278796.0,286046998.8,N
1458278815.8,286046999.8,N
1458278835.7,286047003.8,Y
1458278855.5,286047004.8,P
1458278875.3,286047003.3,N
1458278895.2,286047001.6,N
1458278915.9,286047002.6,N
1458278935.7,286047003.6,N
1458278955.5,286047004.1,N
1458278975.4,286047003.8,N
1458278995.2,286047002.0,N
1458279015.0,286046998.7,N
1458279015.9,286046998.7,N
1458279035.8,286046998.6,N
1458279055.6,286047000.8,N
1458279075.4,286047001.1,N
1458279095.3,286046999.5,N
1458279115.1,286047001.1,N
1458279116.0,286047001.1,N
1458279135.8,286046998.5,N
1458279155.7,286046996.9,N
1458279175.5,286046998.5,N
1458279195.3,286046998.4,N
1458279215.2,286047000.3,N
1458279235.9,286047002.4,N
1458279255.7,286047003.9,N
1458279275.5,286047005.9,N
1458279295.4,286047003.0,N
1458279315.2,286047003.3,N
1458279335.0,286047005.7,N
1458279335.9,286047005.7,N
1458279355.8,286047005.4,N
1458279375.6,286047003.4,N
1458279395.4,286047005.9,N
1458279415.3,286047005.6,N
1458279435.1,286047006.2,N
1458279436.0,286047006.2,N
1458279455.8,286047007.2,N
1458279475.7,286047009.7,Y
1458279495.5,286047011.6,P
1458279515.3,286047012.7,N
1458279535.2,286047011.2,N
1458279555.9,286047014.2,Y
1458279575.7,286047005.5,P
1458279595.6,286047006.8,P
1458279615.4,286047004.5,N
1458279635.2,286047007.3,Y
1458279655.1,286047000.1,P
1458279656.0,286047000.1,N
1458279675.8,286047000.3,N
1458279695.6,286047004.2,N
1458279715.5,286047001.3,N
1458279735.3,286047005.3,N
1458279755.1,286047009.0,Y
1458279775.9,286047008.1,P
1458279795.7,286047008.8,P
1458279815.5,286047009.2,P
1458279835.4,286047007.1,N
1458279855.2,286047006.9,N
1458279875.0,286047006.5,N
1458279875.9,286047006.5,Y
1458279895.8,286047001.5,P
1458279915.6,286047002.1,N
1458279935.4,286047003.0,N
1458279955.3,286047004.3,N
1458279975.1,286047001.5,N
1458279976.0,286047001.5,N
1458279995.8,286047004.3,N
1458280015.7,286047007.5,Y
1458280035.5,286047000.1,P
1458280055.3,286047004.1,N
1458280075.2,286047002.5,N
1458280095.9,286047002.1,N
1458280115.7,286046999.8,N
1458280135.5,286047002.1,N
1458280155.4,286047000.1,N
1458280175.2,286047003.3,N
1458280195.1,286047005.6,Y
1458280196.0,286047005.6,P
1458280215.8,286047001.6,N
1458280235.6,286047002.5,N
1458280255.4,286047000.6,N
1458280275.3,286047002.1,N
1458280295.1,286047002.7,N
1458280315.8,286047001.4,N
1458280335.7,286047003.9,N
1458280355.5,286047005.0,Y
1458280375.3,286046999.2,P
1458280395.2,286046995.2,N
1458280415.9,286046994.8,N
1458280435.7,286046989.1,Y
1458280455.6,286046992.4,P
1458280475.4,286046990.5,P
1458280495.2,286046994.6,N
1458280515.1,286046991.3,Y
1458280516.0,286046991.3,P
1458280535.8,286046997.4,N
1458280555.6,286046999.6,N
1458280575.5,286046999.6,N
1458280595.3,286046995.5,N
1458280615.1,286046995.2,N
1458280635.9,286046994.9,N
1458280655.7,286046995.0,N
1458280675.5,286046997.7,N
1458280695.4,286046993.3,N
1458280715.2,286046996.4,N
1458280735.0,286046997.1,N
1458280735.9,286046997.1,N
1458280755.8,286047000.7,N
1458280775.6,286046996.5,N
1458280795.4,286046999.3,N
